COSMOS 1275 DEB, 27734

Orbit data source: Space-Track

COSMOS 1275 DEB, 27734 is space debris in LEO originally from a launch on Thu, 04 Jun 1981 UTC launched from the Plesetsk Missile And Space Complex (PKMTR). Debris objects in space refer to the collection of defunct objects orbiting the Earth. Examples of debris include non-operational satellites, rocket bodies, and fragments generated from explosions, collisions, or faulty payload assembly.

Loading next visibility...
Identifier
27734, 1981-053MP
Orbit
LEO
Country
Flag of CISCIS
Related business
Manufacturer
Unknown
Mission
Spacecraft
Bus & Motor
Unknown
Mass
Unknown
Launch date (UTC)
1981-06-04 (44 years ago)
Launch vehicle
Unknown
Launch site
Plesetsk Missile And Space Complex (PKMTR)
Object type
Payload
Rocket body
Debris
Shape & HBR
Unknown shape, 0.1 m
Radar Cross Section
Small (<0.1 m²)

Expand to show TLE details & history
Last TLE update: 12 hours ago

TLE from 12 hours ago
0 COSMOS 1275 DEB
1 27734U 81053MP  25286.62221105  .00004174  00000-0  25674-2 0  9994
2 27734  83.1130 256.2157 0098182 331.5653  28.0181 14.03014846521800
Epoch: 2025-10-13T14:55Z
TLE epoch observation values (Epoch: 2025-10-13T14:55:59.034Z)
Latitude
-0.00003°
Longitude
9.79737°
Altitude
823.522 km
Speed
7.473 km/s
True Right ascension
17h 04m 51s
True Declination
0° 00' 00"
Sunlit
Object was in daylight at epoch
Visualization orbit readout
Latitude
Unknown
Longitude
Unknown
Altitude
Unknown
Speed
Unknown
Apparent Right ascension
Unknown
Apparent Declination
Unknown
Sunlit
N/A
Visualization observer readout
Local Sidereal Time
21:09:32
Azimuth
Unknown
Elevation
Unknown
Doppler factor
Unknown
Orbital elements
Apogee altitude
951.744 km
Perigee altitude
809.211 km
Semi-major axis
7,258.614 km
Eccentricity
0.00982
Inclination
83.113°
RAAN
256.2157°
Arg. of periapsis
331.5653°
True anomaly
28.55239°
Mean anomaly
28.0181°
Eccentric anomaly
28.28466°
Mean motion
3.50964 °/min
Orbital period
102.57 mins
BSTAR
0.0025674
Loading maneuver chart data...
Computing Atmospheric mass density...
Loading historical data...
Loading historical data...
Loading historical data...
Loading historical data...
Loading historical data...
Loading historical data...
Loading historical data...

Documentation

Showing up to 5 results
|